Regional Weather Roundup
Issued by NWS

Home | Current Version | Previous Version | Graphics & Text | Print | Product List | Glossary On
Versions: 1 2 3 4 5 6 7 8 9 10 11 12 13 14 15 16 17 18 19 20 21 22 23 24 25 26 27
000
ASUS43 KDMX 221907
RWRIA

WEATHER ROUNDUP FOR IOWA
NATIONAL WEATHER SERVICE DES MOINES IA
200 PM CDT WED OCT 22 2014

NOTE: "FAIR" INDICATES FEW OR NO CLOUDS BELOW 12,000 FEET WITH NO
SIGNIFICANT WEATHER AND/OR OBSTRUCTIONS TO VISIBILITY.

* - THESE STATIONS ARE NOT NWS STATIONS...THUS NOT UNDER NWS
QUALITY CONTROL.  THEY ALSO DO NOT REPORT WEATHER SUCH
AS PRECIPITATION OR FOG.

IAZ001>003-012>014-020>022-031>034-043>046-222000-
   NORTHWEST IOWA

CITY           SKY/WX    TMP DP  RH WIND       PRES   REMARKS
CARROLL *      MOSUNNY   68  46  45 S13G20    30.09F
CHEROKEE *     MOSUNNY   70  50  49 S18G24    30.03F
DENISON *      SUNNY     70  50  49 S15G21    30.04F
LE MARS *      SUNNY     72  52  49 S17G26    29.99F
ORANGE CITY *  SUNNY     73  48  40 S21G29    29.99F
SHELDON *      SUNNY     70  50  49 S20G28    29.99F
SIOUX CITY     MOSUNNY   73  51  46 SE14G23   29.99F
SPENCER        MOSUNNY   68  47  46 S23G29    30.04F
STORM LAKE *   MOSUNNY   68  48  49 S21G29    30.05F
$$

IAZ055>058-069>071-079>083-090>094-222000-
   SOUTHWEST IOWA

CITY           SKY/WX    TMP DP  RH WIND       PRES   REMARKS
ATLANTIC *     SUNNY     70  50  49 SE15G21   30.08F
AUDUBON *      SUNNY     68  46  45 S12G22    30.10F
CLARINDA *     SUNNY     70  52  52 SE13G20   30.11F
COUNCIL BLFS * SUNNY     72  54  53 S16       30.04F
CRESTON *      MOSUNNY   66  48  52 S16G25    30.13F
HARLAN  *        N/A    N/A N/A N/A MISG      30.10
LAMONI         MOSUNNY   63  47  55 SE13G22   30.16F
RED OAK *      SUNNY     70  52  52 S16       30.08F
SHENANDOAH *   SUNNY     72  54  53 SE17      30.08F
$$

IAZ047>049-059>061-072>074-084-222000-
   CENTRAL IOWA

CITY           SKY/WX    TMP DP  RH WIND       PRES   REMARKS
AMES           MOSUNNY   61  44  53 SE14G22   30.15F
ANKENY *       MOSUNNY   63  46  55 SE14G20   30.15F
CHARITON *     SUNNY     64  46  52 SE15G23   30.17F
DES MOINES     MOSUNNY   65  46  50 S18       30.16F
GRINNELL*      SUNNY     59  43  55 SE14G20   30.21F
KNOXVILLE *    SUNNY     63  45  51 S14       30.17F
MARSHALLTOWN   MOSUNNY   61  43  51 SE16      30.17F
PELLA *        MOSUNNY   61  45  55 SE14      30.20F
PERRY *          N/A     64  46  52 SE17G24   30.13F
$$

IAZ004>006-015-016-023>025-035-036-222000-
   NORTH CENTRAL IOWA

CITY           SKY/WX    TMP DP  RH WIND       PRES   REMARKS
ALGONA *       MOSUNNY   63  45  51 S18G29    30.10F
CLARION *      CLOUDY    63  43  48 S17G26    30.13F
ESTHERVILLE    MOSUNNY   64  45  49 S23G31    30.05F
FORT DODGE *   PTSUNNY   63  45  51 S12G21    30.12F
MASON CITY     PTSUNNY   59  43  55 SE17G26   30.16F
FOREST CITY *  CLOUDY    59  45  58 SE18G28   30.13F
IOWA FALLS *     N/A     61  43  51 SE14G20   30.17F
$$

IAZ007>011-017>019-026>030-037>042-050>054-066-222000-
   NORTHEAST IOWA

CITY           SKY/WX    TMP DP  RH WIND       PRES   REMARKS
CEDAR RAPIDS   SUNNY     57  42  57 SE15      30.24F
CHARLES CITY * SUNNY     57  41  54 SE18      30.20F
CLINTON *      SUNNY     57  39  51 SE9       30.31F
DECORAH *      SUNNY     57  37  47 S10G18    30.22F
DUBUQUE        SUNNY     56  39  53 SE12      30.27F
MONTICELLO *   SUNNY     57  39  51 SE10      30.26F
OELWEIN *      SUNNY     59  41  51 S16       30.23F
WATERLOO       MOSUNNY   59  41  51 SE18G25   30.20F
$$

IAZ064-065-067-068-078-222000-
   EAST CENTRAL IOWA

CITY           SKY/WX    TMP DP  RH WIND       PRES   REMARKS
DAVENPORT      SUNNY     57  38  48 SE12      30.28F
IOWA CITY      SUNNY     59  44  57 S10       30.26F
MT. PLEASANT * SUNNY     61  41  48 SE7       30.26F
MUSCATINE *    SUNNY     59  39  47 S10       30.27F
QUAD CITIES    SUNNY     59  40  49 SE13      30.28F
$$

IAZ062-063-075>077-085>089-095>099-222000-
   SOUTHEAST IOWA

CITY           SKY/WX    TMP DP  RH WIND       PRES   REMARKS
BURLINGTON     SUNNY     58  42  55 MISG      30.27F
FAIRFIELD *    SUNNY     59  41  51 SE12      30.24F
FORT MADISON * SUNNY     63  43  48 SE7       30.27F
KEOKUK *       SUNNY     61  43  51 SE10      30.25F
OSKALOOSA *      N/A     61  41  48 SE16      30.22F
CENTERVILLE *  SUNNY     63  46  55 SE10      30.21F
WASHINGTON *   SUNNY     61  41  48 SE14      30.25F
$$

ABBREVIATIONS USED IN REMARKS
   TC - TEMPERATURES IN CELSIUS
  WCI - WIND CHILL INDEX
   HX - HEAT INDEX
  VSB - VISIBILITY
$$




USA.gov is the U.S. government's official web portal to all federal, state and local government web resources and services.